sat.trackr.live / text

‹ back to catalog

STARLINK-35027

NORAD 65466 · 2025-195J

PAYLOAD ACTIVE UNKNOWN

§ Identity

Operator
Country
US
Launch date
2025-09-03
Launch site
AFETR
Launch vehicle
Mass (kg)
RCS (m²)

Purposes: comms

External: N2YO · Heavens-Above · Gunter

§ Orbital elements

Epoch: 2026-09-20T21:52:03.918144Z

Period
93.85 min
Inclination
53.1579°
Eccentricity
0.0001492
Mean motion
15.34388796 rev/d
Perigee alt
461.7 km
Apogee alt
463.8 km
Semi-major
6,840.9 km
B*
4.2243e-4
RAAN
67.8062°
Arg perigee
82.1141°
Mean anomaly
278.0031°
Rev number
5,993

§ Raw data

STARLINK-350271 65466U 25195J   26263.91115646  .00013918  00000+0  42243-3 0  99902 65466  53.1579  67.8062 0001492  82.1141 278.0031 15.34388796 59932

JSON: /api/v1/satellites/65466 · /tle

For live sub-satellite position, see the globe view (requires WebGL).

§ Visibility from observer

Set your observer location to see the next 7 days of passes ≥ 10°. The values pass through the URL so the page stays shareable.

No JS? Fill the form by hand. The geolocation button needs JavaScript.